This is the latest recevied weather packets stored in our database for station/object AG7BI. If no packets are shown the sender has not sent any weather packets the latest 10 day(s).
| Time | Temp. | Humidity | Pressure | Rain* | Wind** | Luminosity | Snow |
|---|---|---|---|---|---|---|---|
| 1777808152 | 13.89° C | 65% | 1014.8 hPa | 0 mm | - | - | - |
| 1777807852 | 13.33° C | 63% | 1014.9 hPa | 0 mm | - | - | - |
| 1777807552 | 13.33° C | 66% | 1015 hPa | 0 mm | - | - | - |
| 1777807252 | 12.78° C | 68% | 1014.7 hPa | 0 mm | - | - | - |
| 1777806952 | 12.78° C | 69% | 1014.6 hPa | 0 mm | - | - | - |
| 1777806652 | 12.22° C | 68% | 1014.7 hPa | 0 mm | - | - | - |
| 1777806352 | 12.22° C | 70% | 1015 hPa | 0 mm | - | - | - |
| 1777806052 | 12.22° C | 73% | 1015 hPa | 0 mm | - | - | - |
| 1777805752 | 12.22° C | 70% | 1015 hPa | 0 mm | - | - | - |
| 1777805452 | 12.22° C | 71% | 1015 hPa | 0 mm | - | - | - |
| 1777805152 | 12.22° C | 71% | 1015.1 hPa | 0 mm | - | - | - |
| 1777804852 | 12.22° C | 71% | 1014.9 hPa | 0 mm | - | - | - |
| 1777804552 | 11.67° C | 71% | 1015 hPa | 0 mm | - | - | - |
| 1777804252 | 11.67° C | 71% | 1015.2 hPa | 0 mm | - | - | - |
| 1777803952 | 11.67° C | 73% | 1015 hPa | 0 mm | - | - | - |
| 1777803652 | 11.67° C | 73% | 1015.2 hPa | 0 mm | - | - | - |
| 1777803352 | 11.67° C | 73% | 1015.2 hPa | 0 mm | - | - | - |
| 1777803052 | 11.67° C | 74% | 1015 hPa | 0 mm | - | - | - |
| 1777802752 | 11.67° C | 75% | 1015.1 hPa | 0 mm | - | - | - |
| 1777802452 | 11.67° C | 74% | 1015.1 hPa | 0 mm | - | - | - |
| 1777802152 | 11.11° C | 75% | 1015.2 hPa | 0 mm | - | - | - |
| 1777801852 | 11.11° C | 75% | 1015.1 hPa | 0 mm | - | - | - |
| 1777801552 | 11.11° C | 75% | 1015 hPa | 0 mm | - | - | - |
| 1777801252 | 11.11° C | 75% | 1015.1 hPa | 0 mm | - | - | - |
| 1777800952 | 11.11° C | 75% | 1015 hPa | 0 mm | - | - | - |
* Rain latest hour (hover to see other rain measurements)
** Current wind speed in m/s (hover to see current wind gust speed)